Location: Capannuccia
(43.7000°N, 11.3000°E)
Time: 08:36:58
(UTC+00:00)

STARLINK-2657 - Pass Details

Date: 30 July 2021
Orbit: 546 x 548 km, 53.1° (Epoch: 23 September)

Event Time Altitude Azimuth Distance (km) Brightness Sun altitude
Rises 20:38:23 0° 295° (WNW) 2,723 8.4 -17.7°
Reaches altitude 10° 20:41:00 10° 279° (W) 1,825 7.0 -18.0°
Maximum altitude 20:44:09 21° 230° (SW) 1,256 5.4 -18.3°
Enters shadow 20:45:21 19° 205° (SSW) 1,351 5.3 -18.5°
